Tracking 28052 objects as of 21-Sep-2023
HD Live streaming from Space Station
objects crossing your sky now

STARLINK-5450

Track STARLINK-5450 now!
10-day predictions
STARLINK-5450 is classified as:


NORAD ID: 54778
Int'l Code: 2022-175W
Perigee: 546.0 km
Apogee: 547.8 km
Inclination: 53.2 °
Period: 95.4 minutes
Semi major axis: 6917 km
RCS: Unknown
Launch date: December 17, 2022
Source: United States (US)
Launch site: AIR FORCE EASTERN TEST RANGE (AFETR)
Your satellite tracking list
Your tracking list is empty




NASA's NSSDC Master Catalog

Two Line Element Set (TLE):
1 54778U 22175W   23263.85801026 -.00002985  00000-0 -16957-3 0  9991
2 54778  53.2160 113.1766 0001292  83.8087 276.3052 15.08826687 44131
Source of the keplerian elements: AFSPC